STARLINK-1677, 46576

Orbit data source: Space-Track

STARLINK-1677, 46576 is a payload satellite owned by SpaceX/Seattle (US) in LEO that was launched on Tue, 06 Oct 2020 UTC via an FALCON 9 launch vehicle from the Air Force Eastern Test Range (AFETR). Payload-class satellites include a variety of spacecraft equipped with specific instruments for various scientific and technological missions. These include communications satellites like Starlink; space stations such as the ISS; scientific satellites like the Hubble; Earth observation satellites from companies like Planet Labs, Umbra, and HawkEye 360; GPS; miniature CubeSats for education and research; and military/defense satellites.

Loading next visibility...
Identifier
46576, 2020-070AW
Orbit
LEO
Last TLE update
3 hours ago
Origin
Manufacturer
SpaceX/Seattle
Mission
Operational Commercial Communications
Bus & Motor
STARLINK, Unknown motor
Mass
260 kg wet, ~248 kg dry
Launch date (UTC)
2020-10-06 (5 years ago)
Launch vehicle
FALCON 9
Launch site
Air Force Eastern Test Range (AFETR)
Object type
Payload
Rocket body
Debris
Shape & HBR
Box + 1 Pan, 8.86 m
Radar Cross Section
13.562 m², Large (>1 m²)

Expand to show TLE details & history

TLE from 3 hours ago
0 STARLINK-1677
1 46576U 20070AW  25192.22479113  .00000680  00000-0  64554-4 0  9997
2 46576  53.0545 165.6001 0001239  91.6494 268.4637 15.06404301263325
Epoch: 2025-07-11T05:23Z
TLE epoch observation values (Epoch: 2025-07-11T05:23:41.953Z)
Latitude
-0.00002°
Longitude
155.2955°
Altitude
548.101 km
Speed
7.589 km/s
True Right ascension
11h 02m 24s
True Declination
0° 00' 00"
Sunlit
Object was in daylight at epoch
Visualization orbit readout
Latitude
17.56528°
Longitude
168.37695°
Altitude
547.186 km
Speed
7.591 km/s
Apparent Right ascension
10h 40m 13s
Apparent Declination
-10° 34' 17"
Sunlit
Object is in daylight
Visualization observer readout
Local Sidereal Time
20:58:12
Azimuth
315.36° NNW
Elevation
-52.961°
Doppler factor
1
Orbital elements
Apogee altitude
548.327 km
Perigee altitude
546.611 km
Semi-major axis
6,925.606 km
Eccentricity
0.00012
Inclination
53.0545°
RAAN
165.6001°
Arg. of periapsis
91.6494°
True anomaly
Unknown
Mean anomaly
268.4637°
Eccentric anomaly
Unknown
Mean motion
3.76579 °/min
Orbital period
95.6 mins
BSTAR
0.000064554
Loading maneuver chart data...
Loading SW <> Apogee altitude chart data...
Loading historical data...
Loading historical data...
Loading historical data...
Loading historical data...
Loading historical data...
Loading historical data...
Loading historical data...

STARLINK-1677 Visibility forecast

Observer location: undefined°, undefined°

Span
Click to sort rows by Start time (UTC) header in descending order
Start Az.
Max El. time (UTC)
Max El. Az.
Max El.
End time (UTC)
End Az.
6 mins2025-07-11 09:07:37.726Z282.846° WNW2025-07-11 09:10:37.726Z230.948° WSW22.718°2025-07-11 09:13:37.726Z178.378° S
6 mins2025-07-12 00:40:37.726Z213.206° SW2025-07-12 00:43:37.726Z129.714° SE41.253°2025-07-12 00:46:37.726Z59.028° ENE
5 mins2025-07-12 02:21:37.726Z297.144° NW2025-07-12 02:23:37.726Z342.02° N23.295°2025-07-12 02:26:37.726Z30.889° NE
4 mins2025-07-12 05:43:37.726Z354.684° N2025-07-12 05:44:37.726Z12.593° NNE16.864°2025-07-12 05:47:37.726Z60.387° ENE
6 mins2025-07-12 07:22:37.726Z321.585° NNW2025-07-12 07:24:37.726Z3.524° NNE39.99°2025-07-12 07:28:37.726Z116.935° SE
|